Regional Weather Roundup
Issued by NWS

Home | Current Version | Previous Version | Graphics & Text | Print | Product List | Glossary On
Versions: 1 2 3 4 5 6 7 8 9 10 11 12 13 14 15 16 17 18 19 20 21 22 23 24 25 26 27
000
ASUS45 KTFX 271210
RWRMT
MONTANA REGIONAL WEATHER ROUNDUP
NATIONAL WEATHER SERVICE GREAT FALLS MT
600 AM MDT SAT MAY 27 2017

NOTE: "FAIR" INDICATES FEW OR NO CLOUDS BELOW 12000 FEET WITH NO
SIGNIFICANT WEATHER AND/OR OBSTRUCTIONS TO VISIBILITY.

MTZ001>007-043-271300-
WEST OF THE DIVIDE

CITY           SKY/WX    TMP DP  RH WIND       PRES   REMARKS
KALISPELL      PTCLDY    38  37  97 CALM      30.08R
MISSOULA       CLEAR     45  40  82 CALM      30.13R
BUTTE          CLOUDY    39  34  82 SE3       30.16R
MULLAN PASS    CLEAR     44  30  57 NW7       30.16S
ANACONDA         N/A     46  36  66 CALM      30.14R
DEER LODGE       N/A     39  36  87 W3        30.16R
EUREKA           N/A     37  34  87 CALM      30.09R
HAMILTON         N/A     46  37  71 S3        30.13R
PLAINS           N/A     39  33  79 CALM      30.10R
RONAN            N/A     43  37  79 CALM      30.11S
$$

MTZ008-052>055-271300-
SOUTHWEST MONTANA

CITY           SKY/WX    TMP DP  RH WIND       PRES   REMARKS
BOZEMAN        CLOUDY    38  35  89 SE8       30.13R
DILLON         CLOUDY    41  34  76 SW5       30.14R
ENNIS          CLOUDY    41  34  75 VRB3      30.20R
THREE FORKS      N/A     39  37  92 CALM      30.10R
TWIN BRIDGES     N/A     40  29  65 CALM      30.11R
$$

MTZ009-010-012-014-046-048-049-054-271300-
EAST SLOPES AND CENTRAL MONTANA

CITY           SKY/WX    TMP DP  RH WIND       PRES   REMARKS
CUT BANK       MOCLDY    44  35  70 W12       30.01R
GREAT FALLS    PTCLDY    44  36  73 SW13      30.03S
MALMSTROM AFB  MOCLDY    45  39  79 SW12      30.03R
HELENA         CLEAR     42  39  89 CALM      30.11R
CHOTEAU          N/A     54  34  47 W8        30.05R
CONRAD           N/A     56  45  66 SW13      30.02S
$$

MTZ011-013-016-021-045-047-050-051-271300-
NORTH CENTRAL MONTANA

CITY           SKY/WX    TMP DP  RH WIND       PRES   REMARKS
HAVRE          CLOUDY    51  39  63 SW21      29.93R
LEWISTOWN      CLEAR     37  32  82 SE6       30.03S
N BAR RANCH      N/A     43  30  61 CALM      30.05R
CHINOOK          N/A     54  37  54 W9        29.92R
FORT BENTON      N/A     48  39  71 CALM      30.00S
$$

MTZ017>020-022>027-061-062-271300-
NORTHEAST MONTANA

CITY           SKY/WX    TMP DP  RH WIND       PRES   REMARKS
GLASGOW        CLOUDY    49  40  71 W3        29.90S
JORDAN           N/A     45  36  70 W7        29.94S
SIDNEY         CLOUDY    52  39  61 W7        29.89S
WOLF POINT     CLOUDY    50  39  66 SW8       29.90R
MALTA          CLOUDY    48  41  76 W7        29.91R
PLENTYWOOD       N/A     46  39  76 W5        29.86R
POPLAR           N/A     50  39  66 SW7       29.89S
SCOBEY           N/A     43  27  53 CALM      29.85F
$$

MTZ028>42-056>058-271300-
SOUTHCENTRAL AND SOUTHEAST MONTANA

CITY           SKY/WX    TMP DP  RH WIND       PRES   REMARKS
BAKER          CLEAR     41  34  76 CALM      29.97R
BILLINGS       PTCLDY    43  36  76 SW17      30.04R
LIVINGSTON     CLOUDY    37  35  92 NW15      30.10R WCI  28
MILES CITY     CLEAR     43  35  73 SW5       29.97R
BIG TIMBER     CLEAR     45  36  70 W18G24    30.10R
EKALAKA          N/A     45  36  70 SW3       29.97R
FORSYTH          N/A     46  37  71 SW5       29.98R
LAUREL           N/A     38  31  76 SW1       30.04F
ROUNDUP          N/A     39  33  79 S12       29.93S WCI  32
$$

REGIONAL REPORTS...DAKOTAS

CITY           SKY/WX    TMP DP  RH WIND       PRES   REMARKS
WILLISTON      CLOUDY    50  40  68 W14       29.87S
MINOT          CLOUDY    54  40  59 SW13      29.81R
DICKINSON      CLEAR     43  36  76 W7        29.90R
BEACH            N/A     43  39  87 W13       29.95S
CROSBY         MOCLDY    50  41  71 W14       29.82F
TIOGA            N/A     46  46 100 W12       29.86S
WATFORD CITY     N/A     45  39  81 SW9       29.87F
BISMARCK       CLEAR     47  38  71 SW5       29.88R
GRAND FORKS    MOSUNNY   53  43  68 W9        29.78R
FARGO          CLOUDY    54  45  71 MISG      29.82S
BUFFALO SD       N/A     43  38  82 W12       29.91R
RAPID CITY     CLOUDY    48  45  89 NW5       29.99R
$$

REGIONAL REPORTS...WYOMING/IDAHO/WASHINGTON

CITY           SKY/WX    TMP DP  RH WIND       PRES   REMARKS
GILLETTE       CLOUDY    43  41  93 W12       30.04S
SHERIDAN       CLOUDY    41  36  82 S5        30.05S
BUFFALO WY     PTCLDY    39  31  72 W7        30.08R
CODY           CLEAR     41  33  73 CALM      30.12R
YELLOWSTONE LA   N/A     29  29 100 CALM      30.22R
IDAHO FALLS    CLEAR     34  34 100 N5        30.19R
SALMON         CLEAR     39  37  93 CALM      30.16R
BOISE          CLEAR     50  40  68 SE10      30.12R
SPOKANE        CLEAR     52  39  61 SE6       30.07R
$$

REGIONAL REPORTS...ALBERTA

CITY           SKY/WX    TMP DP  RH WIND       PRES   REMARKS
EDMONTON       CLEAR     52  43  71 SW9       29.85S
CALGARY        PTCLDY    55  32  41 NW3       29.98R
MEDICINE HAT   MOCLDY    54  43  66 W8        29.89R
WATERTON GATE    N/A     46  34  61 S10         N/A
CARDSTON         N/A     48  34  57 SW9         N/A
MILK RIVER       N/A     50  37  62 W15         N/A
$$

REGIONAL REPORTS...SASKATCHEWAN

CITY           SKY/WX    TMP DP  RH WIND       PRES   REMARKS
SWIFT CURRENT  CLEAR     46  41  81 W12G17    29.84R
REGINA         PTCLDY    41  41 100 W3        29.78S
SASKATOON      PTCLDY    41  37  87 SW6       29.78F
CYPRESS HILLS    N/A     52  32  46 W8G18       N/A
VAL MARIE        N/A     48  39  71 W2          N/A
ROCKGLEN         N/A     48  41  76 W12         N/A
ASSINIBOIA       N/A     46  43  87 NE6         N/A
$$




USA.gov is the U.S. government's official web portal to all federal, state and local government web resources and services.